Location: Sternwarte_Laufen
(47.9344°N, 12.9346°E)
Time: 09:59:21
(UTC+02:00)

ISS - Pass Details

Date: 21 May 2018
Orbit: 402 x 407 km, 51.6° (Epoch: 27 May)

Event Time Altitude Azimuth Distance (km) Brightness Sun altitude
Rises 23:51:10 0° 261° (W) 2,316 0.1 -19.8°
Reaches altitude 10° 23:53:17 10° 266° (W) 1,458 -0.9 -19.9°
Maximum altitude 23:56:30 55° 345° (NNW) 490 -3.2 -20.0°
Drops below altitude 10° 23:59:43 10° 65° (ENE) 1,460 -0.9 -20.2°
Sets 00:01:50 0° 70° (ENE) 2,320 0.1 -20.3°
